Time,TemperatureF,DewpointF,PressureIn,WindDirection,WindDirectionDegrees,WindSpeedMPH,WindSpeedGustMPH,Humidity,HourlyPrecipIn,Conditions,Clouds,dailyrainin,SoftwareType,DateUTC
2013-08-22 00:01:00,64.0,56.6,30.22,SW,225,3.0,7.0,77,0.00,,,0.00,Weather View 32 v70,2013-08-22 06:01:00,
2013-08-22 00:06:00,64.0,57.0,30.22,SW,225,3.0,7.0,78,0.00,,,0.00,Weather View 32 v70,2013-08-22 06:06:00,
2013-08-22 00:11:00,64.0,57.3,30.22,SW,225,3.0,7.0,79,0.00,,,0.00,Weather View 32 v70,2013-08-22 06:11:00,
2013-08-22 00:16:00,64.0,57.3,30.22,SW,225,2.0,7.0,79,0.00,,,0.00,Weather View 32 v70,2013-08-22 06:16:00,
2013-08-22 00:21:00,64.0,57.3,30.22,SW,225,2.0,6.0,79,0.00,,,0.00,Weather View 32 v70,2013-08-22 06:21:00,
2013-08-22 00:26:00,64.0,57.3,30.22,SW,225,0.0,6.0,79,0.00,,,0.00,Weather View 32 v70,2013-08-22 06:26:00,
2013-08-22 00:31:00,64.0,59.1,30.23,South,180,2.0,6.0,84,0.00,,,0.00,Weather View 32 v70,2013-08-22 06:31:00,
2013-08-22 00:36:00,63.0,58.1,30.23,South,180,0.0,6.0,84,0.00,,,0.00,Weather View 32 v70,2013-08-22 06:36:00,
2013-08-22 00:41:00,63.0,57.7,30.23,South,180,0.0,6.0,83,0.00,,,0.00,Weather View 32 v70,2013-08-22 06:41:00,
2013-08-22 00:46:00,63.0,57.7,30.23,South,180,0.0,6.0,83,0.00,,,0.00,Weather View 32 v70,2013-08-22 06:46:00,
2013-08-22 00:51:00,63.0,58.4,30.22,South,180,1.0,6.0,85,0.00,,,0.00,Weather View 32 v70,2013-08-22 06:51:00,
2013-08-22 00:56:00,63.0,58.7,30.22,South,180,0.0,6.0,86,0.00,,,0.00,Weather View 32 v70,2013-08-22 06:56:00,
2013-08-22 01:01:00,63.0,58.7,30.22,South,180,0.0,6.0,86,0.00,,,0.00,Weather View 32 v70,2013-08-22 07:01:00,
2013-08-22 01:06:00,63.0,58.7,30.22,South,180,0.0,6.0,86,0.00,,,0.00,Weather View 32 v70,2013-08-22 07:06:00,
2013-08-22 01:11:00,63.0,59.7,30.22,South,180,0.0,6.0,89,0.00,,,0.00,Weather View 32 v70,2013-08-22 07:11:00,
2013-08-22 01:16:00,63.0,59.4,30.22,South,180,0.0,3.0,88,0.00,,,0.00,Weather View 32 v70,2013-08-22 07:16:00,
2013-08-22 01:21:00,63.0,59.1,30.23,South,180,0.0,3.0,87,0.00,,,0.00,Weather View 32 v70,2013-08-22 07:21:00,
2013-08-22 01:26:00,63.0,58.7,30.23,South,180,0.0,3.0,86,0.00,,,0.00,Weather View 32 v70,2013-08-22 07:26:00,
2013-08-22 01:31:00,63.0,58.7,30.22,South,180,0.0,3.0,86,0.00,,,0.00,Weather View 32 v70,2013-08-22 07:31:00,
2013-08-22 01:36:00,63.0,59.4,30.22,South,180,0.0,3.0,88,0.00,,,0.00,Weather View 32 v70,2013-08-22 07:36:00,
2013-08-22 01:41:00,63.0,59.4,30.22,South,180,0.0,3.0,88,0.00,,,0.00,Weather View 32 v70,2013-08-22 07:41:00,
2013-08-22 01:46:00,62.0,58.1,30.22,South,180,0.0,3.0,87,0.00,,,0.00,Weather View 32 v70,2013-08-22 07:46:00,
2013-08-22 01:51:00,62.0,58.4,30.22,South,180,0.0,2.0,88,0.00,,,0.00,Weather View 32 v70,2013-08-22 07:51:00,
2013-08-22 01:55:00,62.0,58.7,30.22,South,180,0.0,2.0,89,0.00,,,0.00,Weather View 32 v70,2013-08-22 07:55:00,
2013-08-22 02:00:00,62.0,58.1,30.22,South,180,0.0,2.0,87,0.00,,,0.00,Weather View 32 v70,2013-08-22 08:00:00,
2013-08-22 02:05:00,62.0,58.1,30.22,South,180,1.0,2.0,87,0.00,,,0.00,Weather View 32 v70,2013-08-22 08:05:00,
2013-08-22 02:10:00,62.0,57.8,30.22,South,180,0.0,2.0,86,0.00,,,0.00,Weather View 32 v70,2013-08-22 08:10:00,
2013-08-22 02:15:00,62.0,58.1,30.22,South,180,0.0,2.0,87,0.00,,,0.00,Weather View 32 v70,2013-08-22 08:15:00,
2013-08-22 02:20:00,62.0,58.4,30.22,South,180,0.0,2.0,88,0.00,,,0.00,Weather View 32 v70,2013-08-22 08:20:00,
2013-08-22 02:25:00,62.0,58.7,30.22,South,180,2.0,3.0,89,0.00,,,0.00,Weather View 32 v70,2013-08-22 08:25:00,
2013-08-22 02:30:00,62.0,58.7,30.22,South,180,1.0,3.0,89,0.00,,,0.00,Weather View 32 v70,2013-08-22 08:30:00,
2013-08-22 02:35:00,62.0,58.4,30.22,NW,315,4.0,4.0,88,0.00,,,0.00,Weather View 32 v70,2013-08-22 08:35:00,
2013-08-22 02:40:00,62.0,58.1,30.22,NW,315,3.0,5.0,87,0.00,,,0.00,Weather View 32 v70,2013-08-22 08:40:00,
2013-08-22 02:45:00,62.0,58.4,30.22,NW,315,3.0,5.0,88,0.00,,,0.00,Weather View 32 v70,2013-08-22 08:45:00,
2013-08-22 02:50:00,62.0,58.4,30.22,NW,315,1.0,5.0,88,0.00,,,0.00,Weather View 32 v70,2013-08-22 08:50:00,
2013-08-22 02:55:00,61.0,57.7,30.22,NW,315,3.0,5.0,89,0.00,,,0.00,Weather View 32 v70,2013-08-22 08:55:00,
2013-08-22 03:00:00,61.0,57.7,30.22,NW,315,2.0,5.0,89,0.00,,,0.00,Weather View 32 v70,2013-08-22 09:00:00,
2013-08-22 03:05:00,61.0,57.7,30.22,NW,315,3.0,5.0,89,0.00,,,0.00,Weather View 32 v70,2013-08-22 09:05:00,
2013-08-22 03:10:00,61.0,57.7,30.22,NW,315,4.0,5.0,89,0.00,,,0.00,Weather View 32 v70,2013-08-22 09:10:00,
2013-08-22 03:15:00,61.0,58.3,30.22,NW,315,4.0,5.0,91,0.00,,,0.00,Weather View 32 v70,2013-08-22 09:15:00,
2013-08-22 03:20:00,61.0,58.0,30.22,NW,315,2.0,5.0,90,0.00,,,0.00,Weather View 32 v70,2013-08-22 09:20:00,
2013-08-22 03:25:00,61.0,58.0,30.22,NW,315,3.0,5.0,90,0.00,,,0.00,Weather View 32 v70,2013-08-22 09:25:00,
2013-08-22 03:30:00,61.0,58.0,30.21,NW,315,1.0,5.0,90,0.00,,,0.00,Weather View 32 v70,2013-08-22 09:30:00,
2013-08-22 03:35:00,61.0,58.3,30.21,NW,315,0.0,5.0,91,0.00,,,0.00,Weather View 32 v70,2013-08-22 09:35:00,
2013-08-22 03:40:00,61.0,58.7,30.22,NW,315,1.0,5.0,92,0.00,,,0.00,Weather View 32 v70,2013-08-22 09:40:00,
2013-08-22 03:45:00,61.0,58.7,30.22,NW,315,0.0,5.0,92,0.00,,,0.00,Weather View 32 v70,2013-08-22 09:45:00,
2013-08-22 03:50:00,60.0,58.3,30.21,NW,315,0.0,5.0,94,0.00,,,0.00,Weather View 32 v70,2013-08-22 09:50:00,
2013-08-22 03:56:00,60.0,58.6,30.21,NW,315,1.0,5.0,95,0.00,,,0.00,Weather View 32 v70,2013-08-22 09:56:00,
2013-08-22 04:00:00,60.0,58.6,30.21,NW,315,2.0,5.0,95,0.00,,,0.00,Weather View 32 v70,2013-08-22 10:00:00,
2013-08-22 04:06:00,60.0,59.1,30.21,NW,315,2.0,5.0,97,0.00,,,0.00,Weather View 32 v70,2013-08-22 10:06:00,
2013-08-22 04:10:00,60.0,59.1,30.21,NW,315,1.0,5.0,97,0.00,,,0.00,Weather View 32 v70,2013-08-22 10:10:00,
2013-08-22 04:15:00,60.0,59.4,30.21,NW,315,2.0,5.0,98,0.00,,,0.00,Weather View 32 v70,2013-08-22 10:15:00,
2013-08-22 04:20:00,60.0,59.7,30.21,NW,315,0.0,3.0,99,0.00,,,0.00,Weather View 32 v70,2013-08-22 10:20:00,
2013-08-22 04:25:00,60.0,59.7,30.21,NW,315,1.0,3.0,99,0.00,,,0.00,Weather View 32 v70,2013-08-22 10:25:00,
2013-08-22 04:30:00,59.0,59.0,30.21,NW,315,2.0,3.0,100,0.00,,,0.00,Weather View 32 v70,2013-08-22 10:30:00,
2013-08-22 04:36:00,59.0,58.7,30.21,NW,315,1.0,3.0,99,0.00,,,0.00,Weather View 32 v70,2013-08-22 10:36:00,
2013-08-22 04:41:00,59.0,59.0,30.21,NW,315,2.0,3.0,100,0.00,,,0.00,Weather View 32 v70,2013-08-22 10:41:00,
2013-08-22 04:46:00,59.0,59.0,30.21,NW,315,0.0,3.0,100,0.00,,,0.00,Weather View 32 v70,2013-08-22 10:46:00,
2013-08-22 06:27:00,58.0,58.0,30.22,NW,315,0.0,0.0,100,0.00,,,0.00,Weather View 32 v70,2013-08-22 12:27:00,
2013-08-22 06:32:00,58.0,58.0,30.22,NW,315,0.0,0.0,100,0.00,,,0.00,Weather View 32 v70,2013-08-22 12:32:00,
2013-08-22 06:37:00,58.0,58.0,30.22,NW,315,0.0,0.0,100,0.00,,,0.00,Weather View 32 v70,2013-08-22 12:37:00,
2013-08-22 06:42:00,58.0,58.0,30.23,NW,315,1.0,2.0,100,0.00,,,0.00,Weather View 32 v70,2013-08-22 12:42:00,
2013-08-22 06:47:00,58.0,58.0,30.23,NW,315,0.0,2.0,100,0.00,,,0.00,Weather View 32 v70,2013-08-22 12:47:00,
2013-08-22 06:52:00,58.0,58.0,30.23,NW,315,0.0,2.0,100,0.00,,,0.00,Weather View 32 v70,2013-08-22 12:52:00,
2013-08-22 06:57:00,58.0,58.0,30.23,NW,315,0.0,2.0,100,0.00,,,0.00,Weather View 32 v70,2013-08-22 12:57:00,
2013-08-22 07:00:00,58.0,58.0,30.23,North,360,0.0,2.0,100,0.00,,,0.00,Weather View 32 v70,2013-08-22 13:00:00,
2013-08-22 07:05:00,59.0,59.0,30.23,North,360,0.0,2.0,100,0.00,,,0.00,Weather View 32 v70,2013-08-22 13:05:00,
2013-08-22 07:10:00,59.0,59.0,30.24,NE,45,1.0,3.0,100,0.00,,,0.00,Weather View 32 v70,2013-08-22 13:10:00,
2013-08-22 07:15:00,59.0,59.0,30.24,NE,45,0.0,3.0,100,0.00,,,0.00,Weather View 32 v70,2013-08-22 13:15:00,
2013-08-22 07:20:00,59.0,59.0,30.23,NE,45,3.0,5.0,100,0.00,,,0.00,Weather View 32 v70,2013-08-22 13:20:00,
2013-08-22 07:25:00,59.0,59.0,30.23,NE,45,3.0,5.0,100,0.00,,,0.00,Weather View 32 v70,2013-08-22 13:25:00,
2013-08-22 07:30:00,59.0,59.0,30.23,ENE,67,4.0,6.0,100,0.00,,,0.00,Weather View 32 v70,2013-08-22 13:30:00,
2013-08-22 07:35:00,59.0,59.0,30.23,ENE,67,6.0,7.0,100,0.00,,,0.00,Weather View 32 v70,2013-08-22 13:35:00,
2013-08-22 07:40:00,59.0,59.0,30.24,East,90,6.0,8.0,100,0.00,,,0.00,Weather View 32 v70,2013-08-22 13:40:00,
2013-08-22 07:45:00,59.0,59.0,30.24,East,90,4.0,8.0,100,0.00,,,0.00,Weather View 32 v70,2013-08-22 13:45:00,
2013-08-22 07:50:00,60.0,58.6,30.24,East,90,6.0,8.0,95,0.00,,,0.00,Weather View 32 v70,2013-08-22 13:50:00,
2013-08-22 07:55:00,60.0,58.6,30.24,East,90,4.0,8.0,95,0.00,,,0.00,Weather View 32 v70,2013-08-22 13:55:00,
2013-08-22 08:00:00,60.0,58.3,30.24,East,90,5.0,8.0,94,0.00,,,0.00,Weather View 32 v70,2013-08-22 14:00:00,
2013-08-22 08:05:00,61.0,57.7,30.24,East,90,5.0,8.0,89,0.00,,,0.00,Weather View 32 v70,2013-08-22 14:05:00,
2013-08-22 08:10:00,61.0,57.4,30.24,East,90,5.0,8.0,88,0.00,,,0.00,Weather View 32 v70,2013-08-22 14:10:00,
2013-08-22 08:15:00,62.0,58.1,30.24,East,90,5.0,8.0,87,0.00,,,0.00,Weather View 32 v70,2013-08-22 14:15:00,
2013-08-22 08:20:00,62.0,57.8,30.24,East,90,6.0,8.0,86,0.00,,,0.00,Weather View 32 v70,2013-08-22 14:20:00,
2013-08-22 08:25:00,63.0,58.1,30.24,East,90,5.0,8.0,84,0.00,,,0.00,Weather View 32 v70,2013-08-22 14:25:00,
2013-08-22 08:30:00,64.0,57.7,30.24,East,90,4.0,8.0,80,0.00,,,0.00,Weather View 32 v70,2013-08-22 14:30:00,
2013-08-22 08:35:00,64.0,56.3,30.24,East,90,2.0,8.0,76,0.00,,,0.00,Weather View 32 v70,2013-08-22 14:35:00,
2013-08-22 08:40:00,65.0,55.7,30.24,East,90,0.0,8.0,72,0.00,,,0.00,Weather View 32 v70,2013-08-22 14:40:00,
2013-08-22 08:45:00,66.0,55.9,30.24,East,90,3.0,7.0,70,0.00,,,0.00,Weather View 32 v70,2013-08-22 14:45:00,
2013-08-22 08:50:00,66.0,55.5,30.24,East,90,4.0,7.0,69,0.00,,,0.00,Weather View 32 v70,2013-08-22 14:50:00,
2013-08-22 08:55:00,67.0,56.1,30.24,ESE,112,1.0,7.0,68,0.00,,,0.00,Weather View 32 v70,2013-08-22 14:55:00,
2013-08-22 09:00:00,67.0,56.5,30.24,East,90,5.0,7.0,69,0.00,,,0.00,Weather View 32 v70,2013-08-22 15:00:00,
2013-08-22 09:05:00,68.0,56.2,30.24,East,90,3.0,7.0,66,0.00,,,0.00,Weather View 32 v70,2013-08-22 15:05:00,
2013-08-22 09:10:00,68.0,55.3,30.23,East,90,1.0,7.0,64,0.00,,,0.00,Weather View 32 v70,2013-08-22 15:10:00,
2013-08-22 09:15:00,69.0,55.4,30.23,East,90,0.0,7.0,62,0.00,,,0.00,Weather View 32 v70,2013-08-22 15:15:00,
2013-08-22 09:20:00,69.0,55.0,30.23,ESE,112,0.0,7.0,61,0.00,,,0.00,Weather View 32 v70,2013-08-22 15:20:00,
2013-08-22 09:25:00,70.0,53.5,30.23,ESE,112,0.0,6.0,56,0.00,,,0.00,Weather View 32 v70,2013-08-22 15:25:00,
2013-08-22 09:30:00,71.0,53.0,30.23,ESE,112,0.0,6.0,53,0.00,,,0.00,Weather View 32 v70,2013-08-22 15:30:00,
2013-08-22 09:35:00,72.0,54.4,30.23,South,180,0.0,6.0,54,0.00,,,0.00,Weather View 32 v70,2013-08-22 15:35:00,
2013-08-22 09:40:00,73.0,53.7,30.23,SSW,202,0.0,6.0,51,0.00,,,0.00,Weather View 32 v70,2013-08-22 15:40:00,
2013-08-22 09:45:00,74.0,53.6,30.23,NW,315,2.0,6.0,49,0.00,,,0.00,Weather View 32 v70,2013-08-22 15:45:00,
2013-08-22 09:50:00,74.0,55.7,30.22,NW,315,1.0,6.0,53,0.00,,,0.00,Weather View 32 v70,2013-08-22 15:50:00,
2013-08-22 09:55:00,75.0,56.7,30.22,NW,315,0.0,6.0,53,0.00,,,0.00,Weather View 32 v70,2013-08-22 15:55:00,
2013-08-22 10:00:00,75.0,53.9,30.22,NW,315,0.0,6.0,48,0.00,,,0.00,Weather View 32 v70,2013-08-22 16:00:00,
2013-08-22 10:05:00,76.0,53.7,30.22,SW,225,1.0,6.0,46,0.00,,,0.00,Weather View 32 v70,2013-08-22 16:05:00,
2013-08-22 10:10:00,77.0,53.3,30.21,SSW,202,3.0,6.0,44,0.00,,,0.00,Weather View 32 v70,2013-08-22 16:10:00,
2013-08-22 10:15:00,77.0,51.4,30.21,South,180,3.0,7.0,41,0.00,,,0.00,Weather View 32 v70,2013-08-22 16:15:00,
2013-08-22 10:20:00,78.0,51.6,30.22,South,180,2.0,7.0,40,0.00,,,0.00,Weather View 32 v70,2013-08-22 16:20:00,
2013-08-22 10:25:00,78.0,50.3,30.22,South,180,1.0,7.0,38,0.00,,,0.00,Weather View 32 v70,2013-08-22 16:25:00,
2013-08-22 10:30:00,79.0,51.8,30.21,South,180,3.0,7.0,39,0.00,,,0.00,Weather View 32 v70,2013-08-22 16:30:00,
2013-08-22 10:35:00,79.0,51.8,30.21,South,180,2.0,7.0,39,0.00,,,0.00,Weather View 32 v70,2013-08-22 16:35:00,
2013-08-22 10:40:00,80.0,52.0,30.21,South,180,4.0,7.0,38,0.00,,,0.00,Weather View 32 v70,2013-08-22 16:40:00,
2013-08-22 10:45:00,80.0,52.7,30.21,West,270,4.0,7.0,39,0.00,,,0.00,Weather View 32 v70,2013-08-22 16:45:00,
2013-08-22 10:50:00,80.0,54.1,30.20,WSW,247,5.0,7.0,41,0.00,,,0.00,Weather View 32 v70,2013-08-22 16:50:00,
2013-08-22 10:55:00,80.0,53.4,30.20,West,270,3.0,8.0,40,0.00,,,0.00,Weather View 32 v70,2013-08-22 16:55:00,
2013-08-22 11:00:00,80.0,53.4,30.20,WSW,247,0.0,8.0,40,0.00,,,0.00,Weather View 32 v70,2013-08-22 17:00:00,
2013-08-22 11:05:00,81.0,52.9,30.20,WSW,247,4.0,8.0,38,0.00,,,0.00,Weather View 32 v70,2013-08-22 17:05:00,
2013-08-22 11:10:00,81.0,52.2,30.20,West,270,0.0,8.0,37,0.00,,,0.00,Weather View 32 v70,2013-08-22 17:10:00,
2013-08-22 11:15:00,82.0,52.3,30.20,West,270,1.0,8.0,36,0.00,,,0.00,Weather View 32 v70,2013-08-22 17:15:00,
2013-08-22 11:20:00,82.0,51.6,30.20,West,270,5.0,8.0,35,0.00,,,0.00,Weather View 32 v70,2013-08-22 17:20:00,
2013-08-22 11:25:00,83.0,53.2,30.20,SW,225,6.0,8.0,36,0.00,,,0.00,Weather View 32 v70,2013-08-22 17:25:00,
2013-08-22 11:30:00,83.0,53.2,30.20,WSW,247,6.0,9.0,36,0.00,,,0.00,Weather View 32 v70,2013-08-22 17:30:00,
2013-08-22 11:35:00,82.0,53.1,30.20,SW,225,1.0,9.0,37,0.00,,,0.00,Weather View 32 v70,2013-08-22 17:35:00,
2013-08-22 11:40:00,82.0,53.8,30.19,SW,225,4.0,9.0,38,0.00,,,0.00,Weather View 32 v70,2013-08-22 17:40:00,
2013-08-22 11:45:00,82.0,53.8,30.19,West,270,5.0,11.0,38,0.00,,,0.00,Weather View 32 v70,2013-08-22 17:45:00,
2013-08-22 11:50:00,82.0,53.8,30.19,NW,315,6.0,11.0,38,0.00,,,0.00,Weather View 32 v70,2013-08-22 17:50:00,
2013-08-22 11:55:00,82.0,54.5,30.19,ENE,67,5.0,11.0,39,0.00,,,0.00,Weather View 32 v70,2013-08-22 17:55:00,
2013-08-22 12:00:00,81.0,54.3,30.19,SW,225,4.0,11.0,40,0.00,,,0.00,Weather View 32 v70,2013-08-22 18:00:00,
2013-08-22 12:05:00,82.0,53.8,30.19,SW,225,1.0,11.0,38,0.00,,,0.00,Weather View 32 v70,2013-08-22 18:05:00,
2013-08-22 12:10:00,82.0,51.6,30.18,SW,225,6.0,11.0,35,0.00,,,0.00,Weather View 32 v70,2013-08-22 18:10:00,
2013-08-22 12:15:00,82.0,51.6,30.18,SW,225,3.0,11.0,35,0.00,,,0.00,Weather View 32 v70,2013-08-22 18:15:00,
2013-08-22 12:20:00,82.0,53.1,30.18,North,360,4.0,11.0,37,0.00,,,0.00,Weather View 32 v70,2013-08-22 18:20:00,
2013-08-22 12:25:00,80.0,54.8,30.18,North,360,5.0,11.0,42,0.00,,,0.00,Weather View 32 v70,2013-08-22 18:25:00,
2013-08-22 12:30:00,80.0,54.8,30.18,SSW,202,0.0,11.0,42,0.00,,,0.00,Weather View 32 v70,2013-08-22 18:30:00,
2013-08-22 12:35:00,80.0,52.0,30.18,SSW,202,6.0,11.0,38,0.00,,,0.00,Weather View 32 v70,2013-08-22 18:35:00,
2013-08-22 12:40:00,81.0,53.6,30.17,West,270,4.0,11.0,39,0.00,,,0.00,Weather View 32 v70,2013-08-22 18:40:00,
2013-08-22 12:45:00,82.0,52.3,30.17,West,270,5.0,11.0,36,0.00,,,0.00,Weather View 32 v70,2013-08-22 18:45:00,
2013-08-22 12:50:00,82.0,51.6,30.17,North,360,4.0,11.0,35,0.00,,,0.00,Weather View 32 v70,2013-08-22 18:50:00,
2013-08-22 12:55:00,82.0,53.1,30.17,SW,225,8.0,11.0,37,0.00,,,0.00,Weather View 32 v70,2013-08-22 18:55:00,
2013-08-22 13:00:00,82.0,53.8,30.17,NW,315,4.0,11.0,38,0.00,,,0.00,Weather View 32 v70,2013-08-22 19:00:00,
2013-08-22 13:05:00,82.0,53.8,30.17,West,270,3.0,11.0,38,0.00,,,0.00,Weather View 32 v70,2013-08-22 19:05:00,
2013-08-22 13:10:00,82.0,53.8,30.16,NW,315,6.0,11.0,38,0.00,,,0.00,Weather View 32 v70,2013-08-22 19:10:00,
2013-08-22 13:15:00,82.0,54.5,30.16,NW,315,9.0,11.0,39,0.00,,,0.00,Weather View 32 v70,2013-08-22 19:15:00,
2013-08-22 13:20:00,82.0,54.5,30.16,West,270,6.0,11.0,39,0.00,,,0.00,Weather View 32 v70,2013-08-22 19:20:00,
2013-08-22 13:25:00,82.0,52.3,30.16,SW,225,2.0,11.0,36,0.00,,,0.00,Weather View 32 v70,2013-08-22 19:25:00,
2013-08-22 13:30:00,82.0,52.3,30.16,NW,315,4.0,11.0,36,0.00,,,0.00,Weather View 32 v70,2013-08-22 19:30:00,
2013-08-22 13:35:00,83.0,50.8,30.16,SW,225,5.0,11.0,33,0.00,,,0.00,Weather View 32 v70,2013-08-22 19:35:00,
2013-08-22 13:40:00,83.0,49.2,30.14,SSW,202,3.0,11.0,31,0.00,,,0.00,Weather View 32 v70,2013-08-22 19:40:00,
2013-08-22 13:45:00,84.0,48.2,30.14,SW,225,4.0,11.0,29,0.00,,,0.00,Weather View 32 v70,2013-08-22 19:45:00,
2013-08-22 13:50:00,84.0,49.1,30.14,SSW,202,5.0,11.0,30,0.00,,,0.00,Weather View 32 v70,2013-08-22 19:50:00,
2013-08-22 13:55:00,85.0,50.9,30.14,SSW,202,6.0,10.0,31,0.00,,,0.00,Weather View 32 v70,2013-08-22 19:55:00,
2013-08-22 14:00:00,85.0,50.9,30.14,West,270,6.0,10.0,31,0.00,,,0.00,Weather View 32 v70,2013-08-22 20:00:00,
2013-08-22 14:05:00,85.0,49.1,30.14,NW,315,5.0,10.0,29,0.00,,,0.00,Weather View 32 v70,2013-08-22 20:05:00,
2013-08-22 14:10:00,85.0,52.6,30.13,West,270,6.0,9.0,33,0.00,,,0.00,Weather View 32 v70,2013-08-22 20:10:00,
2013-08-22 14:15:00,85.0,51.7,30.13,West,270,3.0,9.0,32,0.00,,,0.00,Weather View 32 v70,2013-08-22 20:15:00,
2013-08-22 14:20:00,86.0,51.7,30.13,WNW,292,8.0,9.0,31,0.00,,,0.00,Weather View 32 v70,2013-08-22 20:20:00,
2013-08-22 14:25:00,86.0,49.9,30.13,West,270,6.0,10.0,29,0.00,,,0.00,Weather View 32 v70,2013-08-22 20:25:00,
2013-08-22 14:30:00,86.0,48.0,30.12,SW,225,6.0,10.0,27,0.00,,,0.00,Weather View 32 v70,2013-08-22 20:30:00,
2013-08-22 14:35:00,86.0,49.0,30.12,NW,315,3.0,11.0,28,0.00,,,0.00,Weather View 32 v70,2013-08-22 20:35:00,
2013-08-22 14:39:00,86.0,49.9,30.11,West,270,9.0,11.0,29,0.00,,,0.00,Weather View 32 v70,2013-08-22 20:39:00,
2013-08-22 14:44:00,86.0,46.0,30.11,WSW,247,0.0,11.0,25,0.00,,,0.00,Weather View 32 v70,2013-08-22 20:44:00,
2013-08-22 14:49:00,87.0,50.8,30.10,WSW,247,8.0,11.0,29,0.00,,,0.00,Weather View 32 v70,2013-08-22 20:49:00,
2013-08-22 14:54:00,87.0,49.8,30.10,NW,315,7.0,11.0,28,0.00,,,0.00,Weather View 32 v70,2013-08-22 20:54:00,
2013-08-22 14:59:00,86.0,53.4,30.10,NW,315,3.0,11.0,33,0.00,,,0.00,Weather View 32 v70,2013-08-22 20:59:00,
2013-08-22 15:04:00,86.0,49.9,30.10,West,270,10.0,11.0,29,0.00,,,0.00,Weather View 32 v70,2013-08-22 21:04:00,
2013-08-22 15:09:00,85.0,50.9,30.09,West,270,7.0,16.0,31,0.00,,,0.00,Weather View 32 v70,2013-08-22 21:09:00,
2013-08-22 15:14:00,85.0,49.1,30.09,West,270,8.0,16.0,29,0.00,,,0.00,Weather View 32 v70,2013-08-22 21:14:00,
2013-08-22 15:19:00,86.0,49.0,30.09,SSW,202,1.0,16.0,28,0.00,,,0.00,Weather View 32 v70,2013-08-22 21:19:00,
2013-08-22 15:24:00,86.0,51.7,30.09,West,270,6.0,16.0,31,0.00,,,0.00,Weather View 32 v70,2013-08-22 21:24:00,
2013-08-22 15:29:00,86.0,49.9,30.08,West,270,5.0,16.0,29,0.00,,,0.00,Weather View 32 v70,2013-08-22 21:29:00,
2013-08-22 15:34:00,86.0,49.0,30.08,West,270,3.0,16.0,28,0.00,,,0.00,Weather View 32 v70,2013-08-22 21:34:00,
2013-08-22 15:39:00,86.0,51.7,30.08,NW,315,3.0,16.0,31,0.00,,,0.00,Weather View 32 v70,2013-08-22 21:39:00,
2013-08-22 15:44:00,86.0,49.9,30.08,SW,225,8.0,16.0,29,0.00,,,0.00,Weather View 32 v70,2013-08-22 21:44:00,
2013-08-22 15:49:00,87.0,47.9,30.07,West,270,3.0,16.0,26,0.00,,,0.00,Weather View 32 v70,2013-08-22 21:49:00,
2013-08-22 15:54:00,87.0,47.9,30.07,NW,315,7.0,16.0,26,0.00,,,0.00,Weather View 32 v70,2013-08-22 21:54:00,
2013-08-22 15:59:00,87.0,48.9,30.06,SW,225,8.0,16.0,27,0.00,,,0.00,Weather View 32 v70,2013-08-22 21:59:00,
2013-08-22 16:04:00,87.0,48.9,30.06,NW,315,6.0,16.0,27,0.00,,,0.00,Weather View 32 v70,2013-08-22 22:04:00,
2013-08-22 16:09:00,87.0,46.8,30.06,SSW,202,7.0,13.0,25,0.00,,,0.00,Weather View 32 v70,2013-08-22 22:09:00,
2013-08-22 16:14:00,87.0,45.7,30.06,SW,225,8.0,13.0,24,0.00,,,0.00,Weather View 32 v70,2013-08-22 22:14:00,
2013-08-22 16:19:00,87.0,45.7,30.05,SW,225,5.0,15.0,24,0.00,,,0.00,Weather View 32 v70,2013-08-22 22:19:00,
2013-08-22 16:24:00,88.0,46.6,30.05,SW,225,5.0,15.0,24,0.00,,,0.00,Weather View 32 v70,2013-08-22 22:24:00,
2013-08-22 16:29:00,88.0,47.7,30.04,West,270,4.0,15.0,25,0.00,,,0.00,Weather View 32 v70,2013-08-22 22:29:00,
2013-08-22 16:34:00,88.0,46.6,30.04,West,270,7.0,15.0,24,0.00,,,0.00,Weather View 32 v70,2013-08-22 22:34:00,
2013-08-22 16:39:00,88.0,46.6,30.04,WNW,292,3.0,15.0,24,0.00,,,0.00,Weather View 32 v70,2013-08-22 22:39:00,
2013-08-22 16:44:00,88.0,46.6,30.04,NW,315,6.0,15.0,24,0.00,,,0.00,Weather View 32 v70,2013-08-22 22:44:00,
2013-08-22 16:49:00,88.0,46.6,30.04,SSW,202,3.0,15.0,24,0.00,,,0.00,Weather View 32 v70,2013-08-22 22:49:00,
2013-08-22 16:54:00,88.0,46.6,30.04,SSW,202,4.0,15.0,24,0.00,,,0.00,Weather View 32 v70,2013-08-22 22:54:00,
2013-08-22 16:59:00,88.0,45.4,30.04,SW,225,11.0,15.0,23,0.00,,,0.00,Weather View 32 v70,2013-08-22 22:59:00,
2013-08-22 17:04:00,88.0,47.7,30.04,West,270,4.0,15.0,25,0.00,,,0.00,Weather View 32 v70,2013-08-22 23:04:00,
2013-08-22 17:09:00,88.0,46.6,30.03,SW,225,6.0,15.0,24,0.00,,,0.00,Weather View 32 v70,2013-08-22 23:09:00,
2013-08-22 17:14:00,88.0,46.6,30.03,SW,225,4.0,15.0,24,0.00,,,0.00,Weather View 32 v70,2013-08-22 23:14:00,
2013-08-22 17:19:00,87.0,47.9,30.04,SW,225,6.0,13.0,26,0.00,,,0.00,Weather View 32 v70,2013-08-22 23:19:00,
2013-08-22 17:24:00,87.0,45.7,30.04,SW,225,13.0,13.0,24,0.00,,,0.00,Weather View 32 v70,2013-08-22 23:24:00,
2013-08-22 17:29:00,87.0,45.7,30.04,SW,225,5.0,14.0,24,0.00,,,0.00,Weather View 32 v70,2013-08-22 23:29:00,
2013-08-22 17:34:00,86.0,46.0,30.04,SW,225,6.0,14.0,25,0.00,,,0.00,Weather View 32 v70,2013-08-22 23:34:00,
2013-08-22 17:39:00,86.0,48.0,30.04,WSW,247,7.0,14.0,27,0.00,,,0.00,Weather View 32 v70,2013-08-22 23:39:00,
2013-08-22 17:44:00,86.0,49.9,30.04,WSW,247,5.0,14.0,29,0.00,,,0.00,Weather View 32 v70,2013-08-22 23:44:00,
2013-08-22 17:49:00,85.0,47.2,30.04,WSW,247,2.0,14.0,27,0.00,,,0.00,Weather View 32 v70,2013-08-22 23:49:00,
2013-08-22 17:54:00,85.0,48.1,30.04,SW,225,7.0,14.0,28,0.00,,,0.00,Weather View 32 v70,2013-08-22 23:54:00,
2013-08-22 17:59:00,85.0,47.2,30.04,West,270,7.0,14.0,27,0.00,,,0.00,Weather View 32 v70,2013-08-22 23:59:00,
2013-08-22 18:04:00,85.0,47.2,30.04,SW,225,4.0,14.0,27,0.00,,,0.00,Weather View 32 v70,2013-08-23 00:04:00,
2013-08-22 18:09:00,85.0,48.1,30.04,WSW,247,3.0,14.0,28,0.00,,,0.00,Weather View 32 v70,2013-08-23 00:09:00,
2013-08-22 18:14:00,85.0,48.1,30.04,WSW,247,9.0,14.0,28,0.00,,,0.00,Weather View 32 v70,2013-08-23 00:14:00,
2013-08-22 18:19:00,84.0,48.2,30.04,SW,225,3.0,14.0,29,0.00,,,0.00,Weather View 32 v70,2013-08-23 00:19:00,
2013-08-22 18:24:00,84.0,49.1,30.04,WSW,247,4.0,14.0,30,0.00,,,0.00,Weather View 32 v70,2013-08-23 00:24:00,
2013-08-22 18:29:00,84.0,49.1,30.04,West,270,6.0,13.0,30,0.00,,,0.00,Weather View 32 v70,2013-08-23 00:29:00,
2013-08-22 18:34:00,84.0,50.0,30.04,West,270,5.0,13.0,31,0.00,,,0.00,Weather View 32 v70,2013-08-23 00:34:00,
2013-08-22 18:39:00,83.0,49.2,30.04,West,270,3.0,13.0,31,0.00,,,0.00,Weather View 32 v70,2013-08-23 00:39:00,
2013-08-22 18:44:00,83.0,49.2,30.04,WNW,292,3.0,12.0,31,0.00,,,0.00,Weather View 32 v70,2013-08-23 00:44:00,
2013-08-22 18:49:00,82.0,48.3,30.04,NW,315,3.0,12.0,31,0.00,,,0.00,Weather View 32 v70,2013-08-23 00:49:00,
2013-08-22 18:54:00,82.0,49.1,30.04,WNW,292,4.0,12.0,32,0.00,,,0.00,Weather View 32 v70,2013-08-23 00:54:00,
2013-08-22 18:59:00,81.0,48.3,30.05,WSW,247,7.0,12.0,32,0.00,,,0.00,Weather View 32 v70,2013-08-23 00:59:00,
2013-08-22 19:04:00,81.0,49.1,30.05,West,270,5.0,11.0,33,0.00,,,0.00,Weather View 32 v70,2013-08-23 01:04:00,
2013-08-22 19:09:00,81.0,49.1,30.06,West,270,8.0,11.0,33,0.00,,,0.00,Weather View 32 v70,2013-08-23 01:09:00,
2013-08-22 19:14:00,80.0,48.2,30.06,West,270,7.0,11.0,33,0.00,,,0.00,Weather View 32 v70,2013-08-23 01:14:00,
2013-08-22 19:19:00,80.0,49.0,30.06,WSW,247,1.0,11.0,34,0.00,,,0.00,Weather View 32 v70,2013-08-23 01:19:00,
2013-08-22 19:24:00,79.0,48.1,30.06,West,270,6.0,11.0,34,0.00,,,0.00,Weather View 32 v70,2013-08-23 01:24:00,
2013-08-22 19:29:00,79.0,48.9,30.06,West,270,3.0,11.0,35,0.00,,,0.00,Weather View 32 v70,2013-08-23 01:29:00,
2013-08-22 19:34:00,79.0,48.9,30.06,West,270,4.0,11.0,35,0.00,,,0.00,Weather View 32 v70,2013-08-23 01:34:00,
2013-08-22 19:39:00,79.0,48.9,30.07,West,270,3.0,11.0,35,0.00,,,0.00,Weather View 32 v70,2013-08-23 01:39:00,
2013-08-22 19:44:00,78.0,47.3,30.07,WNW,292,5.0,11.0,34,0.00,,,0.00,Weather View 32 v70,2013-08-23 01:44:00,
2013-08-22 19:49:00,78.0,48.0,30.07,West,270,2.0,11.0,35,0.00,,,0.00,Weather View 32 v70,2013-08-23 01:49:00,
2013-08-22 19:54:00,78.0,48.0,30.07,West,270,3.0,11.0,35,0.00,,,0.00,Weather View 32 v70,2013-08-23 01:54:00,
2013-08-22 19:59:00,77.0,47.9,30.07,West,270,2.0,11.0,36,0.00,,,0.00,Weather View 32 v70,2013-08-23 01:59:00,
2013-08-22 20:04:00,77.0,47.9,30.07,West,270,0.0,11.0,36,0.00,,,0.00,Weather View 32 v70,2013-08-23 02:04:00,
2013-08-22 20:09:00,77.0,48.7,30.08,West,270,2.0,11.0,37,0.00,,,0.00,Weather View 32 v70,2013-08-23 02:09:00,
2013-08-22 20:14:00,76.0,48.5,30.08,West,270,3.0,10.0,38,0.00,,,0.00,Weather View 32 v70,2013-08-23 02:14:00,
2013-08-22 20:19:00,76.0,49.2,30.08,West,270,2.0,10.0,39,0.00,,,0.00,Weather View 32 v70,2013-08-23 02:19:00,
2013-08-22 20:24:00,76.0,49.9,30.08,West,270,2.0,9.0,40,0.00,,,0.00,Weather View 32 v70,2013-08-23 02:24:00,
2013-08-22 20:29:00,76.0,50.5,30.08,West,270,3.0,7.0,41,0.00,,,0.00,Weather View 32 v70,2013-08-23 02:29:00,
2013-08-22 20:34:00,75.0,50.3,30.08,West,270,1.0,6.0,42,0.00,,,0.00,Weather View 32 v70,2013-08-23 02:34:00,
2013-08-22 20:39:00,75.0,50.3,30.08,West,270,2.0,6.0,42,0.00,,,0.00,Weather View 32 v70,2013-08-23 02:39:00,
2013-08-22 20:44:00,75.0,50.9,30.08,West,270,1.0,6.0,43,0.00,,,0.00,Weather View 32 v70,2013-08-23 02:44:00,
2013-08-22 20:49:00,75.0,50.9,30.08,West,270,0.0,4.0,43,0.00,,,0.00,Weather View 32 v70,2013-08-23 02:49:00,
2013-08-22 20:54:00,75.0,50.9,30.08,West,270,0.0,4.0,43,0.00,,,0.00,Weather View 32 v70,2013-08-23 02:54:00,
2013-08-22 20:59:00,74.0,50.6,30.08,West,270,0.0,4.0,44,0.00,,,0.00,Weather View 32 v70,2013-08-23 02:59:00,
2013-08-22 21:04:00,74.0,50.6,30.08,West,270,0.0,4.0,44,0.00,,,0.00,Weather View 32 v70,2013-08-23 03:04:00,
2013-08-22 21:09:00,74.0,51.2,30.10,West,270,0.0,4.0,45,0.00,,,0.00,Weather View 32 v70,2013-08-23 03:09:00,
2013-08-22 21:14:00,73.0,50.9,30.10,West,270,2.0,4.0,46,0.00,,,0.00,Weather View 32 v70,2013-08-23 03:14:00,
2013-08-22 21:19:00,73.0,50.9,30.10,West,270,1.0,4.0,46,0.00,,,0.00,Weather View 32 v70,2013-08-23 03:19:00,
2013-08-22 21:24:00,73.0,51.5,30.10,West,270,1.0,4.0,47,0.00,,,0.00,Weather View 32 v70,2013-08-23 03:24:00,
2013-08-22 21:29:00,73.0,52.1,30.10,West,270,2.0,4.0,48,0.00,,,0.00,Weather View 32 v70,2013-08-23 03:29:00,
2013-08-22 21:34:00,72.0,52.3,30.10,West,270,2.0,4.0,50,0.00,,,0.00,Weather View 32 v70,2013-08-23 03:34:00,
2013-08-22 21:39:00,72.0,52.3,30.10,West,270,1.0,4.0,50,0.00,,,0.00,Weather View 32 v70,2013-08-23 03:39:00,
2013-08-22 21:44:00,72.0,52.8,30.10,West,270,3.0,4.0,51,0.00,,,0.00,Weather View 32 v70,2013-08-23 03:44:00,
2013-08-22 21:49:00,72.0,52.8,30.10,West,270,3.0,4.0,51,0.00,,,0.00,Weather View 32 v70,2013-08-23 03:49:00,
2013-08-22 21:54:00,72.0,52.8,30.10,West,270,3.0,4.0,51,0.00,,,0.00,Weather View 32 v70,2013-08-23 03:54:00,
2013-08-22 21:59:00,72.0,52.8,30.11,West,270,2.0,4.0,51,0.00,,,0.00,Weather View 32 v70,2013-08-23 03:59:00,
2013-08-22 22:01:00,72.0,53.4,30.11,West,270,2.0,4.0,52,0.00,,,0.00,Weather View 32 v70,2013-08-23 04:01:00,
2013-08-22 22:06:00,71.0,51.9,30.11,West,270,2.0,4.0,51,0.00,,,0.00,Weather View 32 v70,2013-08-23 04:06:00,
2013-08-22 22:11:00,71.0,51.4,30.11,West,270,2.0,4.0,50,0.00,,,0.00,Weather View 32 v70,2013-08-23 04:11:00,
2013-08-22 22:16:00,71.0,51.4,30.11,West,270,1.0,4.0,50,0.00,,,0.00,Weather View 32 v70,2013-08-23 04:16:00,
2013-08-22 22:21:00,71.0,51.9,30.11,West,270,0.0,4.0,51,0.00,,,0.00,Weather View 32 v70,2013-08-23 04:21:00,
2013-08-22 22:26:00,71.0,51.9,30.11,West,270,1.0,4.0,51,0.06,,,0.00,Weather View 32 v70,2013-08-23 04:26:00,
2013-08-22 22:31:00,71.0,51.9,30.10,West,270,0.0,4.0,51,0.00,,,0.00,Weather View 32 v70,2013-08-23 04:31:00,
2013-08-22 22:36:00,71.0,51.9,30.10,West,270,0.0,4.0,51,0.00,,,0.00,Weather View 32 v70,2013-08-23 04:36:00,
2013-08-22 22:41:00,70.0,52.0,30.11,West,270,0.0,4.0,53,0.00,,,0.00,Weather View 32 v70,2013-08-23 04:41:00,
2013-08-22 22:46:00,70.0,53.0,30.11,West,270,0.0,4.0,55,0.00,,,0.00,Weather View 32 v70,2013-08-23 04:46:00,
2013-08-22 22:51:00,70.0,53.0,30.11,West,270,0.0,3.0,55,0.00,,,0.00,Weather View 32 v70,2013-08-23 04:51:00,
2013-08-22 22:56:00,69.0,53.6,30.11,West,270,0.0,3.0,58,0.00,,,0.00,Weather View 32 v70,2013-08-23 04:56:00,
2013-08-22 23:01:00,69.0,53.6,30.11,West,270,0.0,3.0,58,0.00,,,0.00,Weather View 32 v70,2013-08-23 05:01:00,
2013-08-22 23:05:00,69.0,53.6,30.11,West,270,3.0,3.0,58,0.00,,,0.00,Weather View 32 v70,2013-08-23 05:05:00,
2013-08-22 23:10:00,69.0,53.6,30.12,NW,315,0.0,3.0,58,0.00,,,0.00,Weather View 32 v70,2013-08-23 05:10:00,
2013-08-22 23:15:00,69.0,53.1,30.12,NW,315,0.0,3.0,57,0.00,,,0.00,Weather View 32 v70,2013-08-23 05:15:00,
2013-08-22 23:20:00,69.0,53.1,30.12,NW,315,3.0,3.0,57,0.00,,,0.00,Weather View 32 v70,2013-08-23 05:20:00,
2013-08-22 23:25:00,69.0,52.6,30.12,NW,315,0.0,3.0,56,0.00,,,0.00,Weather View 32 v70,2013-08-23 05:25:00,
2013-08-22 23:30:00,69.0,52.6,30.12,NW,315,0.0,3.0,56,0.00,,,0.00,Weather View 32 v70,2013-08-23 05:30:00,
2013-08-22 23:35:00,69.0,53.1,30.12,North,360,0.0,3.0,57,0.00,,,0.00,Weather View 32 v70,2013-08-23 05:35:00,
2013-08-22 23:40:00,69.0,53.1,30.12,North,360,0.0,3.0,57,0.00,,,0.00,Weather View 32 v70,2013-08-23 05:40:00,
2013-08-22 23:45:00,69.0,52.6,30.12,East,90,6.0,6.0,56,0.00,,,0.00,Weather View 32 v70,2013-08-23 05:45:00,
2013-08-22 23:51:00,69.0,53.1,30.13,East,90,6.0,8.0,57,0.00,,,0.00,Weather View 32 v70,2013-08-23 05:51:00,
2013-08-22 23:56:00,69.0,52.6,30.13,East,90,4.0,8.0,56,0.00,,,0.00,Weather View 32 v70,2013-08-23 05:56:00,